Location: Cahas Mountain Overlook
(37.0833°N, 80.1000°W)
Time: 09:29:37
(UTC-05:00)

S-56A Canister/Altair - Pass Details

Date: 06 December 2023
Orbit: 640 x 2488 km, 38.9° (Epoch: 25 February)

Event Time Altitude Azimuth Distance (km) Brightness Sun altitude
Rises 15:55:48 0° 284° (WNW) 2,964 11.1 10.4°
Reaches altitude 10° 15:57:56 10° 281° (W) 2,114 10.5 10.0°
Maximum altitude 16:02:37 62° 201° (SSW) 885 8.4 9.3°
Drops below altitude 10° 16:08:52 10° 122° (ESE) 2,801 10.2 8.3°
Sets 16:12:05 0° 119° (ESE) 4,031 11.0 7.8°
